Home   Weather   Charlotte Amalie   Past weeks

Flag for US Virgin Islands Past Weather in Charlotte Amalie, US Virgin Islands — Yesterday and Last 2 Weeks

Now
81 °F

Clear.


Feels Like: 87 °F
Forecast: 80 / 87 °F
Wind: 10 mph from East

Location: Cyril E. King International Airport

Current Time: Aug 21, 2017 at 2:37:43 am

Latest Report: Aug 21, 2017 at 1:53 am


Visibility: 10 mi

Pressure: 29.99 "Hg

Humidity: 85%

Dew Point: 76 °F

Location of Charlotte AmalieLocation

Past Weather in Charlotte Amalie — Graph

°F

Charlotte Amalie Temperature Yesterday

Maximum temperature yesterday: 88 °F (at 12:53 pm)
Minimum temperature yesterday: 77 °F (at 3:35 pm)
Average temperature yesterday: 82 °F

High & Low Weather Summary for the Past Weeks

 TemperatureHumidityPressure
High91 °F (Aug 15, 1:53 pm)97% (Aug 9, 5:53 pm)30.05 "Hg (Aug 9, 5:53 pm)
Low75 °F (Aug 8, 12:53 am)56% (Aug 15, 1:53 pm)29.84 "Hg (Aug 19, 3:53 am)
Average83 °F80%29.97 "Hg
* Reported Aug 6 12:53 am — Aug 21 12:53 am, Charlotte Amalie. Weather by CustomWeather, © 2017

Note: Actual official high and low records may vary slightly from our data, if they occured in-between our weather recording intervals... More about our weather records

Advertising

Charlotte Amalie Weather History for the Previous 24 Hours

Scroll right to see more
 ConditionsComfort  
Time TempWeatherWind HumidityBarometerVisibility
12:53 am
Mon, Aug 21
81 °FClear.12 mph88%30.00 "Hg10 mi
11:53 pm
Sun, Aug 20
81 °FClear.10 mph88%30.02 "Hg10 mi
10:53 pm82 °FPassing clouds.7 mph85%30.04 "Hg10 mi
9:53 pm82 °FClear.9 mph85%30.03 "Hg10 mi
8:53 pm82 °FPassing clouds.10 mph88%30.00 "Hg10 mi
7:53 pm81 °FClear.8 mph91%29.99 "Hg10 mi
6:53 pm81 °FClear.10 mph88%29.96 "Hg10 mi
5:53 pm80 °FPassing clouds.10 mph87%29.96 "Hg10 mi
4:53 pm79 °FLight rain. Partly sunny.9 mph88%29.96 "Hg10 mi
3:53 pm80 °FLight rain. Scattered clouds.12 mph87%29.95 "Hg8 mi
3:35 pm77 °FLight rain. Fog.13 mph94%29.96 "Hg2 mi
2:53 pm87 °FWarm.12 mph75%29.93 "HgN/A
1:53 pm87 °FSunny.17 mph72%29.96 "Hg10 mi
12:53 pm88 °FPassing clouds.18 mph70%29.97 "Hg10 mi
11:53 am87 °FPassing clouds.21 mph72%29.97 "Hg10 mi
10:53 am86 °FScattered clouds.20 mph77%29.99 "Hg10 mi
10:38 am85 °FBroken clouds.13 mph83%29.99 "Hg10 mi
9:53 am84 °FBroken clouds.16 mph88%29.96 "Hg10 mi
9:41 am84 °FCloudy.14 mph85%29.96 "Hg10 mi
8:53 am85 °FScattered clouds.12 mph83%29.95 "Hg10 mi
7:53 am83 °FScattered clouds.9 mph88%29.93 "Hg10 mi
6:53 am80 °FLight rain. Fog.13 mph90%29.92 "Hg5 mi
5:53 am80 °FClear.7 mph94%29.90 "Hg10 mi
4:53 am78 °FPassing clouds.7 mph93%29.89 "Hg10 mi
3:53 am80 °FLight rain. Fog.7 mph90%29.89 "Hg5 mi
2:53 am81 °FClear.7 mph91%29.88 "Hg10 mi
Weather by CustomWeather, © 2017

See weather overviewHow to use our weather pages